Regional Weather Roundup
Issued by NWS

Home | Current Version | Previous Version | Text Only | Print | Product List | Glossary Off
Versions: 1 2 3 4 5 6 7 8 9 10 11 12 13 14 15 16 17 18 19 20 21 22 23 24 25 26 27 28 29 30 31 32 33 34 35 36 37 38 39 40 41 42 43 44 45 46 47 48 49 50

000
ASUS43 KBIS 301510
RWRND

NORTH DAKOTA REGIONAL WEATHER ROUNDUP
NATIONAL WEATHER SERVICE BISMARCK ND
1000 AM CDT FRI SEP 30 2016

NOTE: "FAIR" INDICATES FEW OR NO CLOUDS BELOW 12,000 FEET WITH NO
SIGNIFICANT WEATHER AND/OR OBSTRUCTIONS TO VISIBILITY.


NDZ001>003-009>011-017-301600-
NORTHWEST NORTH DAKOTA

CITY           SKY/WX    TMP DP  RH WIND       PRES   REMARKS
WILLISTON      MOSUNNY   59  47  64 VRB3      30.02R
MINOT          MOSUNNY   56  47  71 SE10      30.10S
MINOT AFB      CLOUDY    55  48  77 S15       30.08S
$$

NDZ018>021-031>035-040>046-301600-
SOUTHWEST NORTH DAKOTA

CITY           SKY/WX    TMP DP  RH WIND       PRES   REMARKS
BISMARCK       PTSUNNY   56  47  71 S16       30.16F
DICKINSON      CLOUDY    55  43  63 S15       30.05S
GARRISON         N/A     55  48  77 SE13      30.10F
HETTINGER ARPT CLOUDY    56  43  61 SE14G22   30.09F
$$

NDZ004>008-012>016-024-026-027-054-301600-
NORTHEAST NORTH DAKOTA

CITY           SKY/WX    TMP DP  RH WIND       PRES   REMARKS
GRAND FORKS    MOSUNNY   54  49  83 S13       30.31F
GRND FRKS AFB  MOSUNNY   53  49  87 S13       30.31S
$$

NDZ022-023-025-028>030-036>039-047>053-301600-
SOUTHEAST NORTH DAKOTA

CITY           SKY/WX    TMP DP  RH WIND       PRES   REMARKS
FARGO          MOSUNNY   57  50  77 SE13G21   30.34R
JAMESTOWN      SUNNY     54  48  80 S15       30.26R
$$





USA.gov is the U.S. government's official web portal to all federal, state and local government web resources and services.